Location: Unspecified
(42.2730°N, 83.7130°W)
Time: 13:09:50
(UTC+00:00)

Okean 1 - Pass Details

Date: 14 December 2025
Orbit: 465 x 484 km, 82.5° (Epoch: 17 January)

Event Time Altitude Azimuth Distance (km) Brightness Sun altitude
Rises 23:22:49 0° 178° (S) 2,522 6.9 -14.2°
Reaches altitude 10° 23:24:55 10° 174° (S) 1,644 5.9 -14.5°
Maximum altitude 23:28:27 57° 95° (E) 563 3.0 -15.2°
Enters shadow 23:30:53 19° 21° (NNE) 1,205 4.7 -15.6°
